Location: Caltech
(34.1382°N, 118.1253°W)
Time: 18:21:10
(UTC-07:00)

Iridium 68 - Visible Passes

Search period start: 24 May 2015 00:00
Search period end: 03 June 2015 00:00
Orbit: 776 x 779 km, 86.4° (Epoch: 24 May)

Date Brightness Start Highest point End Pass type
(mag) Time Alt. Az. Time Alt. Az. Time Alt. Az.
24 May 8.3 21:44:37 10° SW 21:48:43 22° W 21:52:40 10° NNW visible
25 May 7.2 21:10:01 10° SSW 21:14:57 42° W 21:19:54 10° NNW visible
26 May 6.1 20:36:11 10° S 20:41:23 84° W 20:46:37 10° N visible
27 May 8.8 21:45:59 10° WSW 21:49:02 15° WNW 21:51:50 10° NW visible
28 May 8.0 21:10:40 10° SW 21:15:11 29° W 21:19:38 10° NNW visible
29 May 6.8 20:36:24 10° SSW 20:41:31 56° W 20:46:37 10° N visible
31 May 8.7 21:11:40 10° SW 21:15:28 19° WNW 21:19:05 10° NNW visible
01 Jun 7.7 20:36:52 10° SSW 20:41:41 37° W 20:46:28 10° NNW visible
